Time,TemperatureF,DewpointF,PressureIn,WindDirection,WindDirectionDegrees,WindSpeedMPH,WindSpeedGustMPH,Humidity,HourlyPrecipIn,Conditions,Clouds,dailyrainin,SolarRadiationWatts/m^2,SoftwareType,DateUTC
2014-04-18 00:01:00,62.5,60.8,30.15,ENE,76,0.0,0.0,94,0.00,,,0.00,1197.00,VWS V15.00,2014-04-18 05:01:00,
2014-04-18 00:06:00,62.5,60.8,30.15,ENE,76,0.0,0.0,94,0.00,,,0.00,1194.00,VWS V15.00,2014-04-18 05:06:00,
2014-04-18 00:11:00,62.5,60.8,30.15,ENE,76,0.0,0.0,94,0.00,,,0.00,1190.00,VWS V15.00,2014-04-18 05:11:00,
2014-04-18 00:16:00,62.5,60.8,30.15,ENE,76,0.0,0.0,94,0.00,,,0.00,1188.00,VWS V15.00,2014-04-18 05:16:00,
2014-04-18 00:21:00,62.5,60.8,30.15,ENE,76,0.0,0.0,94,0.00,,,0.00,1185.00,VWS V15.00,2014-04-18 05:21:00,
2014-04-18 00:26:00,62.5,60.8,30.15,ENE,76,0.0,0.0,94,0.00,,,0.00,1187.00,VWS V15.00,2014-04-18 05:26:00,
2014-04-18 00:31:00,62.5,60.8,30.15,ENE,76,0.0,0.0,94,0.00,,,0.00,1185.00,VWS V15.00,2014-04-18 05:31:00,
2014-04-18 00:36:00,62.5,60.8,30.15,ENE,76,0.0,0.0,94,0.00,,,0.00,1185.00,VWS V15.00,2014-04-18 05:36:00,
2014-04-18 00:41:00,62.5,60.8,30.15,ENE,76,0.0,0.0,94,0.00,,,0.00,1185.00,VWS V15.00,2014-04-18 05:41:00,
2014-04-18 00:46:00,62.5,60.8,30.15,ENE,76,0.0,0.0,94,0.00,,,0.00,1183.00,VWS V15.00,2014-04-18 05:46:00,
2014-04-18 00:51:00,62.5,60.8,30.15,ENE,76,0.0,0.0,94,0.00,,,0.00,1183.00,VWS V15.00,2014-04-18 05:51:00,
2014-04-18 00:56:00,62.5,60.8,30.15,ENE,76,0.0,0.0,94,0.00,,,0.00,1185.00,VWS V15.00,2014-04-18 05:56:00,
2014-04-18 01:01:00,62.5,60.8,30.15,ENE,76,0.0,0.0,94,0.00,,,0.00,1187.00,VWS V15.00,2014-04-18 06:01:00,
2014-04-18 01:06:00,62.4,60.7,30.15,ENE,76,0.0,0.0,94,0.00,,,0.00,1187.00,VWS V15.00,2014-04-18 06:06:00,
2014-04-18 01:11:00,62.4,60.7,30.15,ENE,76,0.0,0.0,94,0.00,,,0.00,1187.00,VWS V15.00,2014-04-18 06:11:00,
2014-04-18 01:16:00,62.4,60.7,30.15,ENE,76,0.0,0.0,94,0.00,,,0.00,1187.00,VWS V15.00,2014-04-18 06:16:00,
2014-04-18 01:21:00,62.4,60.7,30.15,ENE,76,0.0,0.0,94,0.00,,,0.00,1185.00,VWS V15.00,2014-04-18 06:21:00,
2014-04-18 01:26:00,62.2,60.5,30.15,ENE,76,0.0,0.0,94,0.00,,,0.00,1185.00,VWS V15.00,2014-04-18 06:26:00,
2014-04-18 01:31:00,62.2,60.5,30.15,ENE,76,0.0,0.0,94,0.00,,,0.00,1183.00,VWS V15.00,2014-04-18 06:31:00,
2014-04-18 01:36:00,62.2,60.5,30.15,ENE,76,0.0,0.0,94,0.00,,,0.00,1181.00,VWS V15.00,2014-04-18 06:36:00,
2014-04-18 01:41:00,62.2,60.5,30.15,ENE,76,0.0,0.0,94,0.00,,,0.00,1179.00,VWS V15.00,2014-04-18 06:41:00,
2014-04-18 01:46:00,62.2,60.5,30.15,ENE,76,0.0,0.0,94,0.00,,,0.00,1178.00,VWS V15.00,2014-04-18 06:46:00,
2014-04-18 01:51:00,62.4,60.7,30.15,ENE,76,0.0,0.0,94,0.00,,,0.00,1176.00,VWS V15.00,2014-04-18 06:51:00,
2014-04-18 01:56:00,62.4,60.7,30.15,ENE,76,0.0,0.0,94,0.00,,,0.00,1176.00,VWS V15.00,2014-04-18 06:56:00,
2014-04-18 02:01:00,62.4,60.7,30.15,ENE,76,0.0,0.0,94,0.00,,,0.00,1174.00,VWS V15.00,2014-04-18 07:01:00,
2014-04-18 02:06:00,62.4,60.7,30.15,ENE,76,0.0,0.0,94,0.00,,,0.00,1174.00,VWS V15.00,2014-04-18 07:06:00,
2014-04-18 02:11:00,62.2,60.8,30.15,ENE,76,0.0,0.0,95,0.00,,,0.00,1172.00,VWS V15.00,2014-04-18 07:11:00,
2014-04-18 02:16:00,62.2,60.5,30.15,ENE,76,0.0,0.0,94,0.00,,,0.00,1171.00,VWS V15.00,2014-04-18 07:16:00,
2014-04-18 02:21:00,62.2,60.8,30.15,ENE,76,0.0,0.0,95,0.00,,,0.00,1169.00,VWS V15.00,2014-04-18 07:21:00,
2014-04-18 02:26:00,62.2,60.8,30.15,ENE,76,0.0,0.0,95,0.00,,,0.00,1167.00,VWS V15.00,2014-04-18 07:26:00,
2014-04-18 02:31:00,62.4,61.0,30.14,ENE,76,0.0,0.0,95,0.00,,,0.00,1167.00,VWS V15.00,2014-04-18 07:31:00,
2014-04-18 02:36:00,62.4,61.0,30.14,ENE,76,0.0,0.0,95,0.00,,,0.00,1165.00,VWS V15.00,2014-04-18 07:36:00,
2014-04-18 02:41:00,62.4,61.0,30.14,ENE,76,0.0,0.0,95,0.00,,,0.00,1164.00,VWS V15.00,2014-04-18 07:41:00,
2014-04-18 02:46:00,62.2,60.8,30.14,ENE,76,0.0,0.0,95,0.00,,,0.00,1164.00,VWS V15.00,2014-04-18 07:46:00,
2014-04-18 02:51:00,62.2,60.8,30.14,ENE,76,0.0,0.0,95,0.00,,,0.00,1158.00,VWS V15.00,2014-04-18 07:51:00,
2014-04-18 02:56:00,62.2,60.8,30.14,ENE,76,0.0,0.0,95,0.00,,,0.00,1158.00,VWS V15.00,2014-04-18 07:56:00,
2014-04-18 03:01:00,62.2,60.8,30.14,ENE,76,0.0,0.0,95,0.00,,,0.00,1158.00,VWS V15.00,2014-04-18 08:01:00,
2014-04-18 03:06:00,62.0,60.6,30.14,ENE,76,0.0,0.0,95,0.00,,,0.00,1157.00,VWS V15.00,2014-04-18 08:06:00,
2014-04-18 03:11:00,62.0,60.6,30.14,ENE,76,0.0,0.0,95,0.00,,,0.00,1158.00,VWS V15.00,2014-04-18 08:11:00,
2014-04-18 03:16:00,62.0,60.6,30.14,ENE,76,0.0,0.0,95,0.00,,,0.00,1157.00,VWS V15.00,2014-04-18 08:16:00,
2014-04-18 03:21:00,62.0,60.6,30.14,ENE,76,0.0,0.0,95,0.00,,,0.00,1153.00,VWS V15.00,2014-04-18 08:21:00,
2014-04-18 03:26:00,62.0,60.6,30.14,ENE,76,0.0,0.0,95,0.00,,,0.00,1155.00,VWS V15.00,2014-04-18 08:26:00,
2014-04-18 03:31:00,62.0,60.6,30.14,ENE,76,0.0,0.0,95,0.00,,,0.00,1153.00,VWS V15.00,2014-04-18 08:31:00,
2014-04-18 03:36:00,62.0,60.6,30.14,ENE,76,0.0,0.0,95,0.00,,,0.00,1148.00,VWS V15.00,2014-04-18 08:36:00,
2014-04-18 03:41:00,62.0,60.6,30.14,ENE,76,0.0,0.0,95,0.00,,,0.00,1146.00,VWS V15.00,2014-04-18 08:41:00,
2014-04-18 03:46:00,62.0,60.6,30.14,ENE,76,0.0,0.0,95,0.00,,,0.00,1143.00,VWS V15.00,2014-04-18 08:46:00,
2014-04-18 03:51:00,62.0,60.6,30.14,ENE,76,0.0,0.0,95,0.00,,,0.00,1143.00,VWS V15.00,2014-04-18 08:51:00,
2014-04-18 03:56:00,62.0,60.6,30.14,ENE,76,0.0,0.0,95,0.00,,,0.00,1141.00,VWS V15.00,2014-04-18 08:56:00,
2014-04-18 04:01:00,62.0,60.6,30.14,ENE,76,0.0,0.0,95,0.00,,,0.00,1141.00,VWS V15.00,2014-04-18 09:01:00,
2014-04-18 04:06:00,62.0,60.6,30.14,ENE,76,0.0,0.0,95,0.00,,,0.00,1141.00,VWS V15.00,2014-04-18 09:06:00,
2014-04-18 04:11:00,62.0,60.6,30.14,ENE,76,0.0,0.0,95,0.00,,,0.00,1139.00,VWS V15.00,2014-04-18 09:11:00,
2014-04-18 04:16:00,62.0,60.6,30.14,ENE,76,0.0,0.0,95,0.00,,,0.00,1137.00,VWS V15.00,2014-04-18 09:16:00,
2014-04-18 04:21:00,62.0,60.6,30.14,ENE,76,0.0,0.0,95,0.00,,,0.00,1141.00,VWS V15.00,2014-04-18 09:21:00,
2014-04-18 04:26:00,62.0,60.6,30.14,ENE,76,0.0,0.0,95,0.00,,,0.00,1139.00,VWS V15.00,2014-04-18 09:26:00,
2014-04-18 04:31:00,62.0,60.6,30.13,ENE,76,0.0,0.0,95,0.00,,,0.00,1141.00,VWS V15.00,2014-04-18 09:31:00,
2014-04-18 04:36:00,62.0,60.6,30.13,ENE,76,0.0,0.0,95,0.00,,,0.00,1141.00,VWS V15.00,2014-04-18 09:36:00,
2014-04-18 04:41:00,62.0,60.6,30.13,ENE,76,0.0,0.0,95,0.00,,,0.00,1141.00,VWS V15.00,2014-04-18 09:41:00,
2014-04-18 04:46:00,62.0,60.6,30.13,ENE,76,0.0,0.0,95,0.00,,,0.00,1141.00,VWS V15.00,2014-04-18 09:46:00,
2014-04-18 04:51:00,62.0,60.6,30.13,ENE,76,0.0,0.0,95,0.00,,,0.00,1141.00,VWS V15.00,2014-04-18 09:51:00,
2014-04-18 04:56:00,62.0,60.6,30.13,ENE,76,0.0,0.0,95,0.00,,,0.00,1141.00,VWS V15.00,2014-04-18 09:56:00,
2014-04-18 05:01:00,62.0,60.6,30.14,ENE,76,0.0,0.0,95,0.00,,,0.00,1139.00,VWS V15.00,2014-04-18 10:01:00,
2014-04-18 05:06:00,62.0,60.6,30.14,ENE,76,0.0,0.0,95,0.00,,,0.00,1139.00,VWS V15.00,2014-04-18 10:06:00,
2014-04-18 05:11:00,62.0,60.6,30.14,ENE,76,0.0,0.0,95,0.00,,,0.00,1139.00,VWS V15.00,2014-04-18 10:11:00,
2014-04-18 05:16:00,62.0,60.6,30.14,ENE,76,0.0,0.0,95,0.00,,,0.00,1139.00,VWS V15.00,2014-04-18 10:16:00,
2014-04-18 05:21:00,62.0,60.6,30.14,ENE,76,0.0,0.0,95,0.00,,,0.00,1136.00,VWS V15.00,2014-04-18 10:21:00,
2014-04-18 05:26:00,62.0,60.6,30.14,ENE,76,0.0,0.0,95,0.00,,,0.00,1136.00,VWS V15.00,2014-04-18 10:26:00,
2014-04-18 05:31:00,62.0,60.6,30.14,ENE,76,0.0,0.0,95,0.00,,,0.00,1136.00,VWS V15.00,2014-04-18 10:31:00,
2014-04-18 05:36:00,62.0,60.6,30.14,ENE,76,0.0,0.0,95,0.00,,,0.00,1134.00,VWS V15.00,2014-04-18 10:36:00,
2014-04-18 05:41:00,62.0,60.6,30.14,ENE,76,0.0,0.0,95,0.00,,,0.00,1136.00,VWS V15.00,2014-04-18 10:41:00,
2014-04-18 05:46:00,62.0,60.6,30.14,ENE,76,0.0,0.0,95,0.00,,,0.00,1136.00,VWS V15.00,2014-04-18 10:46:00,
2014-04-18 05:51:00,62.0,60.6,30.14,ENE,76,0.0,0.0,95,0.00,,,0.00,1136.00,VWS V15.00,2014-04-18 10:51:00,
2014-04-18 05:56:00,62.0,60.6,30.14,ENE,76,0.0,0.0,95,0.00,,,0.00,1132.00,VWS V15.00,2014-04-18 10:56:00,
2014-04-18 06:01:00,62.0,60.6,30.14,ENE,76,0.0,0.0,95,0.00,,,0.00,1132.00,VWS V15.00,2014-04-18 11:01:00,
2014-04-18 06:06:00,62.0,60.6,30.14,ENE,76,0.0,0.0,95,0.00,,,0.00,1132.00,VWS V15.00,2014-04-18 11:06:00,
2014-04-18 06:11:00,62.0,60.6,30.14,ENE,76,0.0,0.0,95,0.00,,,0.00,1132.00,VWS V15.00,2014-04-18 11:11:00,
2014-04-18 06:16:00,62.0,60.6,30.15,ENE,76,0.0,0.0,95,0.00,,,0.00,1130.00,VWS V15.00,2014-04-18 11:16:00,
2014-04-18 06:21:00,62.0,60.6,30.15,ENE,76,0.0,0.0,95,0.00,,,0.00,1130.00,VWS V15.00,2014-04-18 11:21:00,
2014-04-18 06:26:00,62.0,60.6,30.15,ENE,76,0.0,0.0,95,0.00,,,0.00,1129.00,VWS V15.00,2014-04-18 11:26:00,
2014-04-18 06:31:00,62.0,60.6,30.15,ENE,76,0.0,0.0,95,0.00,,,0.00,1129.00,VWS V15.00,2014-04-18 11:31:00,
2014-04-18 06:36:00,62.0,60.6,30.15,ENE,76,0.0,0.0,95,0.00,,,0.00,1129.00,VWS V15.00,2014-04-18 11:36:00,
2014-04-18 06:41:00,62.0,60.6,30.15,ENE,76,0.0,0.0,95,0.00,,,0.00,1129.00,VWS V15.00,2014-04-18 11:41:00,
2014-04-18 06:46:00,61.9,60.5,30.15,ENE,76,0.0,0.0,95,0.00,,,0.00,1129.00,VWS V15.00,2014-04-18 11:46:00,
2014-04-18 06:51:00,61.9,60.5,30.15,ENE,76,0.0,0.0,95,0.00,,,0.00,1127.00,VWS V15.00,2014-04-18 11:51:00,
2014-04-18 06:56:00,61.9,60.5,30.15,ENE,76,0.0,0.0,95,0.00,,,0.00,1127.00,VWS V15.00,2014-04-18 11:56:00,
2014-04-18 07:01:00,61.9,60.5,30.15,ENE,76,0.0,0.0,95,0.00,,,0.00,1125.00,VWS V15.00,2014-04-18 12:01:00,
2014-04-18 07:06:00,61.9,60.5,30.15,ENE,76,0.0,0.0,95,0.00,,,0.00,1123.00,VWS V15.00,2014-04-18 12:06:00,
2014-04-18 07:11:00,61.9,60.5,30.15,ENE,76,0.0,0.0,95,0.00,,,0.00,1123.00,VWS V15.00,2014-04-18 12:11:00,
2014-04-18 07:16:00,61.7,60.3,30.15,ENE,76,0.0,0.0,95,0.00,,,0.00,1123.00,VWS V15.00,2014-04-18 12:16:00,
2014-04-18 07:21:00,61.7,60.3,30.15,ENE,76,0.0,0.0,95,0.00,,,0.00,1123.00,VWS V15.00,2014-04-18 12:21:00,
2014-04-18 07:26:00,61.7,60.3,30.15,ENE,76,0.0,0.0,95,0.00,,,0.00,1125.00,VWS V15.00,2014-04-18 12:26:00,
2014-04-18 07:31:00,61.7,60.3,30.16,ENE,76,0.0,0.0,95,0.00,,,0.00,1125.00,VWS V15.00,2014-04-18 12:31:00,
2014-04-18 07:36:00,61.7,60.3,30.16,ENE,76,0.0,0.0,95,0.00,,,0.00,1123.00,VWS V15.00,2014-04-18 12:36:00,
2014-04-18 07:41:00,61.7,60.3,30.16,ENE,76,0.0,0.0,95,0.00,,,0.00,1121.00,VWS V15.00,2014-04-18 12:41:00,
2014-04-18 07:46:00,61.7,60.3,30.17,ENE,76,0.0,0.0,95,0.00,,,0.00,1120.00,VWS V15.00,2014-04-18 12:46:00,
2014-04-18 07:51:00,61.7,60.3,30.17,ENE,76,0.0,0.0,95,0.00,,,0.00,1118.00,VWS V15.00,2014-04-18 12:51:00,
2014-04-18 07:56:00,61.9,60.5,30.17,ENE,76,0.0,0.0,95,0.00,,,0.00,1120.00,VWS V15.00,2014-04-18 12:56:00,
2014-04-18 08:01:00,61.9,60.5,30.17,ENE,76,0.0,0.0,95,0.00,,,0.00,1118.00,VWS V15.00,2014-04-18 13:01:00,
2014-04-18 08:06:00,61.9,60.5,30.17,ENE,76,0.0,0.0,95,0.00,,,0.00,1120.00,VWS V15.00,2014-04-18 13:06:00,
2014-04-18 08:11:00,61.9,60.5,30.17,ENE,76,0.0,0.0,95,0.00,,,0.00,1120.00,VWS V15.00,2014-04-18 13:11:00,
2014-04-18 08:16:00,62.0,60.6,30.17,ENE,76,0.0,0.0,95,0.00,,,0.00,1116.00,VWS V15.00,2014-04-18 13:16:00,
2014-04-18 08:21:00,62.4,61.0,30.17,ENE,76,0.0,0.0,95,0.00,,,0.00,1111.00,VWS V15.00,2014-04-18 13:21:00,
2014-04-18 08:26:00,62.7,61.2,30.17,ENE,76,0.0,1.0,95,0.00,,,0.00,1106.00,VWS V15.00,2014-04-18 13:26:00,
2014-04-18 08:31:00,62.8,61.3,30.17,ENE,76,0.0,0.0,95,0.00,,,0.00,1100.00,VWS V15.00,2014-04-18 13:31:00,
2014-04-18 08:36:00,63.0,61.5,30.17,ENE,76,0.0,0.0,95,0.00,,,0.00,1097.00,VWS V15.00,2014-04-18 13:36:00,
2014-04-18 08:41:00,63.0,61.5,30.17,ENE,76,0.0,0.0,95,0.00,,,0.00,1095.00,VWS V15.00,2014-04-18 13:41:00,
2014-04-18 08:46:00,62.8,61.3,30.18,ENE,76,0.0,0.0,95,0.00,,,0.00,1100.00,VWS V15.00,2014-04-18 13:46:00,
2014-04-18 08:51:00,63.3,61.8,30.18,ENE,76,0.0,0.0,95,0.00,,,0.00,1100.00,VWS V15.00,2014-04-18 13:51:00,
2014-04-18 08:56:00,64.2,62.7,30.18,ENE,76,0.0,0.0,95,0.00,,,0.00,1088.00,VWS V15.00,2014-04-18 13:56:00,
2014-04-18 09:01:00,64.9,63.4,30.18,ENE,76,0.0,0.0,95,0.00,,SCT030,0.00,1078.00,VWS V15.00,2014-04-18 14:01:00,
2014-04-18 09:06:00,65.2,63.7,30.18,ENE,76,0.0,0.0,95,0.00,,SCT030,0.00,1069.00,VWS V15.00,2014-04-18 14:06:00,
2014-04-18 09:11:00,65.7,64.2,30.18,ENE,76,0.0,1.0,95,0.00,,SCT030,0.00,1069.00,VWS V15.00,2014-04-18 14:11:00,
2014-04-18 09:16:00,65.7,63.9,30.18,East,92,2.0,2.0,94,0.00,,SCT030,0.00,1074.00,VWS V15.00,2014-04-18 14:16:00,
2014-04-18 09:21:00,65.8,63.7,30.18,East,92,0.0,0.0,93,0.00,,SCT030,0.00,1086.00,VWS V15.00,2014-04-18 14:21:00,
2014-04-18 09:26:00,66.0,63.6,30.18,East,90,1.0,2.0,92,0.00,,SCT030,0.00,1093.00,VWS V15.00,2014-04-18 14:26:00,
2014-04-18 09:31:00,66.2,63.2,30.18,East,84,2.0,2.0,90,0.00,,SCT030,0.00,1097.00,VWS V15.00,2014-04-18 14:31:00,
2014-04-18 09:36:00,66.7,63.0,30.18,East,92,0.0,2.0,88,0.00,,SCT030,0.00,1097.00,VWS V15.00,2014-04-18 14:36:00,
2014-04-18 09:41:00,67.0,62.7,30.18,East,92,0.0,0.0,86,0.00,,SCT032,0.00,1092.00,VWS V15.00,2014-04-18 14:41:00,
2014-04-18 09:46:00,67.6,62.6,30.18,ESE,102,5.0,5.0,84,0.00,,SCT032,0.00,1079.00,VWS V15.00,2014-04-18 14:46:00,
2014-04-18 09:51:00,68.3,62.9,30.18,East,99,0.0,1.0,83,0.00,,SCT032,0.00,1069.00,VWS V15.00,2014-04-18 14:51:00,
2014-04-18 09:56:00,68.8,62.7,30.18,East,99,0.0,2.0,81,0.00,,SCT032,0.00,1060.00,VWS V15.00,2014-04-18 14:56:00,
2014-04-18 10:01:00,69.4,62.6,30.18,East,99,0.0,0.0,79,0.00,,SCT031,0.00,1056.00,VWS V15.00,2014-04-18 15:01:00,
2014-04-18 10:06:00,69.6,62.1,30.18,East,99,0.0,1.0,77,0.00,,SCT031,0.00,1071.00,VWS V15.00,2014-04-18 15:06:00,
2014-04-18 10:11:00,69.8,62.6,30.18,East,99,0.0,0.0,78,0.00,,SCT031,0.00,1079.00,VWS V15.00,2014-04-18 15:11:00,
2014-04-18 10:16:00,70.3,62.4,30.18,East,99,1.0,2.0,76,0.00,,SCT031,0.00,1078.00,VWS V15.00,2014-04-18 15:16:00,
2014-04-18 10:21:00,70.3,61.2,30.18,East,99,0.0,0.0,73,0.00,,SCT031,0.00,1083.00,VWS V15.00,2014-04-18 15:21:00,
2014-04-18 10:26:00,70.4,61.3,30.18,East,99,0.0,1.0,73,0.00,,SCT031,0.00,1088.00,VWS V15.00,2014-04-18 15:26:00,
2014-04-18 10:31:00,70.9,62.2,30.18,East,99,0.0,0.0,74,0.00,,SCT031,0.00,1078.00,VWS V15.00,2014-04-18 15:31:00,
2014-04-18 10:36:00,71.6,62.1,30.18,ESE,109,0.0,4.0,72,0.00,,SCT031,0.00,1063.00,VWS V15.00,2014-04-18 15:36:00,
2014-04-18 10:41:00,72.1,63.0,30.18,ESE,109,0.0,0.0,73,0.00,,SCT031,0.00,1058.00,VWS V15.00,2014-04-18 15:41:00,
2014-04-18 10:46:00,72.4,61.7,30.18,ESE,109,0.0,2.0,69,0.00,,SCT031,0.00,1058.00,VWS V15.00,2014-04-18 15:46:00,
2014-04-18 10:51:00,72.6,61.9,30.18,ESE,109,0.0,0.0,69,0.00,,SCT031,0.00,1056.00,VWS V15.00,2014-04-18 15:51:00,
2014-04-18 10:56:00,72.4,61.7,30.18,ESE,109,0.0,2.0,69,0.00,,SCT031,0.00,1067.00,VWS V15.00,2014-04-18 15:56:00,
2014-04-18 11:01:00,72.1,61.0,30.18,ESE,109,0.0,0.0,68,0.00,,BKN032,0.00,1083.00,VWS V15.00,2014-04-18 16:01:00,
2014-04-18 11:06:00,71.9,61.6,30.18,ESE,109,0.0,0.0,70,0.00,,BKN032,0.00,1095.00,VWS V15.00,2014-04-18 16:06:00,
2014-04-18 11:11:00,71.9,61.2,30.18,ESE,119,0.0,0.0,69,0.00,,BKN032,0.00,1095.00,VWS V15.00,2014-04-18 16:11:00,
2014-04-18 11:16:00,72.3,62.0,30.18,East,81,1.0,3.0,70,0.00,,BKN032,0.00,1093.00,VWS V15.00,2014-04-18 16:16:00,
2014-04-18 11:21:00,72.3,62.0,30.18,ENE,74,0.0,0.0,70,0.00,,BKN035,0.00,1093.00,VWS V15.00,2014-04-18 16:21:00,
2014-04-18 11:26:00,72.1,60.5,30.18,ESE,118,0.0,3.0,67,0.00,,BKN035,0.00,1100.00,VWS V15.00,2014-04-18 16:26:00,
2014-04-18 11:31:00,71.8,60.7,30.18,SE,144,0.0,1.0,68,0.00,,BKN035,0.00,1111.00,VWS V15.00,2014-04-18 16:31:00,
2014-04-18 11:36:00,71.8,61.5,30.18,SE,144,0.0,1.0,70,0.00,,BKN035,0.00,1113.00,VWS V15.00,2014-04-18 16:36:00,
2014-04-18 11:41:00,71.9,59.9,30.18,East,96,0.0,0.0,66,0.00,,BKN035,0.00,1113.00,VWS V15.00,2014-04-18 16:41:00,
2014-04-18 11:46:00,72.1,61.0,30.19,East,96,0.0,0.0,68,0.00,,BKN035,0.00,1111.00,VWS V15.00,2014-04-18 16:46:00,
2014-04-18 11:51:00,72.3,61.2,30.19,East,96,0.0,0.0,68,0.00,,BKN035,0.00,1104.00,VWS V15.00,2014-04-18 16:51:00,
2014-04-18 11:56:00,72.8,59.9,30.19,East,96,0.0,1.0,64,0.00,,BKN035,0.00,1097.00,VWS V15.00,2014-04-18 16:56:00,
2014-04-18 12:01:00,72.8,60.8,30.19,NNE,27,0.0,0.0,66,0.00,,BKN047,0.00,1097.00,VWS V15.00,2014-04-18 17:01:00,
2014-04-18 12:06:00,73.1,60.7,30.19,NNE,27,0.0,0.0,65,0.00,,BKN047,0.00,1097.00,VWS V15.00,2014-04-18 17:06:00,
2014-04-18 12:11:00,73.1,59.8,30.19,NNE,27,0.0,0.0,63,0.00,,BKN047,0.00,1099.00,VWS V15.00,2014-04-18 17:11:00,
2014-04-18 12:16:00,73.1,59.3,30.18,NNE,27,0.0,2.0,62,0.00,,BKN047,0.00,1102.00,VWS V15.00,2014-04-18 17:16:00,
2014-04-18 12:21:00,73.6,60.2,30.18,East,93,0.0,2.0,63,0.00,,BKN047,0.00,1083.00,VWS V15.00,2014-04-18 17:21:00,
2014-04-18 12:26:00,74.5,59.2,30.18,East,88,2.0,2.0,59,0.00,,BKN047,0.00,1063.00,VWS V15.00,2014-04-18 17:26:00,
2014-04-18 12:31:00,75.9,60.6,30.18,East,96,0.0,0.0,59,0.00,,BKN047,0.00,1048.00,VWS V15.00,2014-04-18 17:31:00,
2014-04-18 12:36:00,77.1,62.2,30.18,East,89,0.0,1.0,60,0.00,,BKN047,0.00,1034.00,VWS V15.00,2014-04-18 17:36:00,
2014-04-18 12:41:00,78.5,62.0,30.18,South,171,0.0,0.0,57,0.00,,BKN047,0.00,1027.00,VWS V15.00,2014-04-18 17:41:00,
2014-04-18 12:46:00,78.7,58.5,30.17,ESE,102,0.0,4.0,50,0.00,,BKN047,0.00,1055.00,VWS V15.00,2014-04-18 17:46:00,
2014-04-18 12:51:00,78.0,60.0,30.17,East,98,2.0,2.0,54,0.00,,BKN047,0.00,1109.00,VWS V15.00,2014-04-18 17:51:00,
2014-04-18 12:56:00,77.3,59.9,30.17,SE,130,0.0,4.0,55,0.00,,BKN047,0.00,1144.00,VWS V15.00,2014-04-18 17:56:00,
2014-04-18 13:01:00,77.5,59.0,30.17,SE,130,0.0,1.0,53,0.00,,BKN032,0.00,1148.00,VWS V15.00,2014-04-18 18:01:00,
2014-04-18 13:06:00,77.8,59.8,30.17,SE,129,0.0,1.0,54,0.00,,BKN032,0.00,1157.00,VWS V15.00,2014-04-18 18:06:00,
2014-04-18 13:11:00,78.0,60.5,30.17,SE,129,0.0,0.0,55,0.00,,BKN032,0.00,1187.00,VWS V15.00,2014-04-18 18:11:00,
2014-04-18 13:16:00,77.5,59.0,30.17,SE,146,0.0,4.0,53,0.00,,BKN032,0.00,1245.00,VWS V15.00,2014-04-18 18:16:00,
2014-04-18 13:21:00,76.9,60.0,30.17,SE,146,2.0,2.0,56,0.00,,BKN032,0.00,1303.00,VWS V15.00,2014-04-18 18:21:00,
2014-04-18 13:26:00,76.1,59.8,30.17,SE,144,1.0,2.0,57,0.00,,BKN032,0.00,1338.00,VWS V15.00,2014-04-18 18:26:00,
2014-04-18 13:31:00,75.4,60.1,30.16,SE,144,0.0,0.0,59,0.00,,BKN032,0.00,1354.00,VWS V15.00,2014-04-18 18:31:00,
2014-04-18 13:36:00,74.8,59.5,30.16,SSE,153,1.0,2.0,59,0.00,,BKN032,0.00,1364.00,VWS V15.00,2014-04-18 18:36:00,
2014-04-18 13:41:00,74.7,59.4,30.16,SSE,153,0.0,0.0,59,0.00,,BKN032,0.00,1373.00,VWS V15.00,2014-04-18 18:41:00,
2014-04-18 13:46:00,74.7,59.4,30.16,SSE,153,0.0,1.0,59,0.00,,BKN032,0.00,1373.00,VWS V15.00,2014-04-18 18:46:00,
2014-04-18 13:51:00,74.8,60.0,30.16,SSE,152,0.0,0.0,60,0.00,,BKN032,0.00,1385.00,VWS V15.00,2014-04-18 18:51:00,
2014-04-18 13:56:00,75.7,61.8,30.16,SSE,152,0.0,0.0,62,0.00,,BKN032,0.00,1352.00,VWS V15.00,2014-04-18 18:56:00,
2014-04-18 14:01:00,76.8,59.9,30.15,SSE,152,0.0,0.0,56,0.00,,SCT035,0.00,1332.00,VWS V15.00,2014-04-18 19:01:00,
2014-04-18 14:06:00,77.5,60.1,30.15,SSE,150,0.0,1.0,55,0.00,,SCT035,0.00,1332.00,VWS V15.00,2014-04-18 19:06:00,
2014-04-18 14:11:00,77.3,59.9,30.15,ENE,78,0.0,0.0,55,0.00,,SCT035,0.00,1368.00,VWS V15.00,2014-04-18 19:11:00,
2014-04-18 14:16:00,78.0,63.9,30.14,North,5,0.0,4.0,62,0.00,,SCT035,0.00,1362.00,VWS V15.00,2014-04-18 19:16:00,
2014-04-18 14:21:00,79.2,61.1,30.14,NE,45,1.0,1.0,54,0.00,,SCT035,0.00,1380.00,VWS V15.00,2014-04-18 19:21:00,
2014-04-18 14:26:00,79.2,59.5,30.14,ESE,110,2.0,4.0,51,0.00,,SCT035,0.00,1429.00,VWS V15.00,2014-04-18 19:26:00,
2014-04-18 14:31:00,79.4,59.7,30.14,ENE,62,0.0,0.0,51,0.00,,SCT035,0.00,1473.00,VWS V15.00,2014-04-18 19:31:00,
2014-04-18 14:36:00,79.6,61.0,30.14,SE,132,0.0,4.0,53,0.00,,SCT035,0.00,1503.00,VWS V15.00,2014-04-18 19:36:00,
2014-04-18 14:41:00,79.1,60.0,30.14,SE,132,0.0,0.0,52,0.00,,SCT035,0.00,1533.00,VWS V15.00,2014-04-18 19:41:00,
2014-04-18 14:46:00,78.9,60.9,30.13,ENE,59,0.0,3.0,54,0.00,,SCT035,0.00,1543.00,VWS V15.00,2014-04-18 19:46:00,
2014-04-18 14:51:00,78.9,60.9,30.13,NNE,12,0.0,0.0,54,0.00,,SCT035,0.00,1557.00,VWS V15.00,2014-04-18 19:51:00,
2014-04-18 14:56:00,79.2,59.5,30.13,NNW,334,4.0,4.0,51,0.00,,SCT035,0.00,1557.00,VWS V15.00,2014-04-18 19:56:00,
2014-04-18 15:01:00,78.7,62.7,30.12,NNW,336,0.0,0.0,58,0.00,,BKN070,0.00,1573.00,VWS V15.00,2014-04-18 20:01:00,
2014-04-18 15:06:00,79.2,61.7,30.12,East,93,0.0,6.0,55,0.00,,BKN070,0.00,1573.00,VWS V15.00,2014-04-18 20:06:00,
2014-04-18 15:11:00,79.8,60.1,30.12,SSE,147,0.0,0.0,51,0.00,,BKN070,0.00,1554.00,VWS V15.00,2014-04-18 20:11:00,
2014-04-18 15:16:00,79.2,59.0,30.12,SSE,147,0.0,0.0,50,0.00,,BKN070,0.00,1586.00,VWS V15.00,2014-04-18 20:16:00,
2014-04-18 15:21:00,79.2,60.6,30.12,SSE,147,1.0,1.0,53,0.00,,BKN070,0.00,1582.00,VWS V15.00,2014-04-18 20:21:00,
2014-04-18 15:26:00,79.1,58.3,30.12,SE,135,0.0,1.0,49,0.00,,BKN070,0.00,1591.00,VWS V15.00,2014-04-18 20:26:00,
2014-04-18 15:31:00,78.3,57.6,30.11,ESE,112,0.0,2.0,49,0.00,,BKN070,0.00,1631.00,VWS V15.00,2014-04-18 20:31:00,
2014-04-18 15:36:00,77.8,58.2,30.11,ESE,112,0.0,2.0,51,0.00,,BKN070,0.00,1621.00,VWS V15.00,2014-04-18 20:36:00,
2014-04-18 15:41:00,77.5,58.5,30.11,ESE,112,0.0,1.0,52,0.00,,BKN070,0.00,1617.00,VWS V15.00,2014-04-18 20:41:00,
2014-04-18 15:46:00,77.1,58.7,30.10,ESE,112,0.0,1.0,53,0.00,,BKN070,0.00,1608.00,VWS V15.00,2014-04-18 20:46:00,
2014-04-18 15:51:00,77.3,59.4,30.10,ESE,112,0.0,0.0,54,0.00,,BKN070,0.00,1594.00,VWS V15.00,2014-04-18 20:51:00,
2014-04-18 15:56:00,78.0,57.3,30.10,ESE,112,0.0,2.0,49,0.00,,BKN070,0.00,1575.00,VWS V15.00,2014-04-18 20:56:00,
2014-04-18 16:01:00,78.7,57.4,30.09,ESE,112,0.0,0.0,48,0.00,,OVC060,0.00,1570.00,VWS V15.00,2014-04-18 21:01:00,
2014-04-18 16:06:00,78.9,58.1,30.09,ENE,59,0.0,3.0,49,0.00,,OVC060,0.00,1586.00,VWS V15.00,2014-04-18 21:06:00,
2014-04-18 16:11:00,78.9,55.2,30.09,ENE,59,1.0,1.0,44,0.00,,OVC060,0.00,1591.00,VWS V15.00,2014-04-18 21:11:00,
2014-04-18 16:16:00,78.9,58.1,30.09,ESE,121,0.0,2.0,49,0.00,,OVC060,0.00,1603.00,VWS V15.00,2014-04-18 21:16:00,
2014-04-18 16:21:00,78.5,57.8,30.09,ESE,118,1.0,1.0,49,0.00,,OVC060,0.00,1608.00,VWS V15.00,2014-04-18 21:21:00,
2014-04-18 16:26:00,78.2,58.1,30.09,ESE,115,0.0,2.0,50,0.00,,OVC060,0.00,1629.00,VWS V15.00,2014-04-18 21:26:00,
2014-04-18 16:31:00,77.5,57.4,30.09,ESE,115,0.0,0.0,50,0.00,,OVC060,0.00,1645.00,VWS V15.00,2014-04-18 21:31:00,
2014-04-18 16:36:00,76.9,57.4,30.09,ESE,115,0.0,1.0,51,0.00,,OVC060,0.00,1640.00,VWS V15.00,2014-04-18 21:36:00,
2014-04-18 16:41:00,76.6,57.1,30.09,ESE,119,0.0,0.0,51,0.00,,OVC060,0.00,1638.00,VWS V15.00,2014-04-18 21:41:00,
2014-04-18 16:46:00,76.2,57.3,30.09,ESE,119,0.0,0.0,52,0.00,,OVC060,0.00,1635.00,VWS V15.00,2014-04-18 21:46:00,
2014-04-18 16:51:00,76.2,57.8,30.09,ESE,119,0.0,0.0,53,0.00,,OVC060,0.00,1633.00,VWS V15.00,2014-04-18 21:51:00,
2014-04-18 16:56:00,76.2,57.3,30.09,ESE,119,0.0,0.0,52,0.00,,OVC060,0.00,1629.00,VWS V15.00,2014-04-18 21:56:00,
2014-04-18 17:01:00,76.6,57.1,30.09,ESE,119,0.0,0.0,51,0.00,,CLR,0.00,1622.00,VWS V15.00,2014-04-18 22:01:00,
2014-04-18 17:06:00,77.1,59.2,30.09,ESE,119,0.0,1.0,54,0.00,,CLR,0.00,1614.00,VWS V15.00,2014-04-18 22:06:00,
2014-04-18 17:11:00,77.8,57.1,30.09,ESE,118,0.0,0.0,49,0.00,,CLR,0.00,1610.00,VWS V15.00,2014-04-18 22:11:00,
2014-04-18 17:16:00,78.5,57.8,30.09,ESE,107,0.0,2.0,49,0.00,,CLR,0.00,1612.00,VWS V15.00,2014-04-18 22:16:00,
2014-04-18 17:21:00,78.7,56.8,30.09,ESE,107,0.0,1.0,47,0.00,,CLR,0.00,1612.00,VWS V15.00,2014-04-18 22:21:00,
2014-04-18 17:26:00,78.7,56.8,30.09,East,94,1.0,4.0,47,0.00,,CLR,0.00,1633.00,VWS V15.00,2014-04-18 22:26:00,
2014-04-18 17:31:00,78.5,56.6,30.09,East,94,0.0,0.0,47,0.00,,CLR,0.00,1635.00,VWS V15.00,2014-04-18 22:31:00,
2014-04-18 17:36:00,78.9,58.7,30.09,East,94,0.0,1.0,50,0.00,,CLR,0.00,1622.00,VWS V15.00,2014-04-18 22:36:00,
2014-04-18 17:41:00,79.1,57.8,30.09,East,94,0.0,0.0,48,0.00,,CLR,0.00,1619.00,VWS V15.00,2014-04-18 22:41:00,
2014-04-18 17:46:00,78.9,57.6,30.09,East,94,0.0,2.0,48,0.00,,CLR,0.00,1622.00,VWS V15.00,2014-04-18 22:46:00,
2014-04-18 17:51:00,78.7,56.8,30.09,East,94,0.0,0.0,47,0.00,,CLR,0.00,1629.00,VWS V15.00,2014-04-18 22:51:00,
2014-04-18 17:56:00,78.3,55.8,30.09,ENE,66,0.0,2.0,46,0.00,,CLR,0.00,1640.00,VWS V15.00,2014-04-18 22:56:00,
2014-04-18 18:01:00,78.0,57.9,30.08,ENE,66,0.0,0.0,50,0.00,,OVC070,0.00,1633.00,VWS V15.00,2014-04-18 23:01:00,
2014-04-18 18:06:00,77.8,57.7,30.08,ENE,62,0.0,2.0,50,0.00,,OVC070,0.00,1635.00,VWS V15.00,2014-04-18 23:06:00,
2014-04-18 18:11:00,77.5,56.9,30.08,ENE,62,0.0,0.0,49,0.00,,OVC070,0.00,1633.00,VWS V15.00,2014-04-18 23:11:00,
2014-04-18 18:16:00,77.3,57.8,30.08,ENE,62,0.0,0.0,51,0.00,,OVC070,0.00,1629.00,VWS V15.00,2014-04-18 23:16:00,
2014-04-18 18:21:00,77.1,58.1,30.08,ENE,62,0.0,0.0,52,0.00,,OVC070,0.00,1626.00,VWS V15.00,2014-04-18 23:21:00,
2014-04-18 18:26:00,76.9,56.3,30.08,ENE,62,0.0,0.0,49,0.00,,OVC070,0.00,1624.00,VWS V15.00,2014-04-18 23:26:00,
2014-04-18 18:31:00,76.9,56.3,30.08,ENE,62,1.0,1.0,49,0.00,,OVC070,0.00,1619.00,VWS V15.00,2014-04-18 23:31:00,
2014-04-18 18:36:00,76.8,56.2,30.08,ENE,62,0.0,2.0,49,0.00,,OVC070,0.00,1622.00,VWS V15.00,2014-04-18 23:36:00,
2014-04-18 18:41:00,76.8,57.3,30.08,ENE,62,0.0,0.0,51,0.00,,OVC070,0.00,1617.00,VWS V15.00,2014-04-18 23:41:00,
2014-04-18 18:46:00,76.9,59.5,30.07,ENE,62,0.0,0.0,55,0.00,,OVC070,0.00,1614.00,VWS V15.00,2014-04-18 23:46:00,
2014-04-18 18:51:00,76.8,56.8,30.07,ENE,62,0.0,0.0,50,0.00,,OVC070,0.00,1612.00,VWS V15.00,2014-04-18 23:51:00,
2014-04-18 18:56:00,76.6,57.7,30.07,ENE,62,0.0,0.0,52,0.00,,OVC070,0.00,1617.00,VWS V15.00,2014-04-18 23:56:00,
2014-04-18 19:01:00,76.4,57.0,30.07,ENE,62,0.0,0.0,51,0.00,,CLR,0.00,1619.00,VWS V15.00,2014-04-19 00:01:00,
2014-04-18 19:06:00,76.1,57.8,30.07,ENE,62,0.0,0.0,53,0.00,,CLR,0.00,1612.00,VWS V15.00,2014-04-19 00:06:00,
2014-04-18 19:11:00,75.7,56.3,30.07,ENE,62,0.0,0.0,51,0.00,,CLR,0.00,1617.00,VWS V15.00,2014-04-19 00:11:00,
2014-04-18 19:16:00,75.4,56.0,30.07,ENE,62,0.0,0.0,51,0.00,,CLR,0.00,1617.00,VWS V15.00,2014-04-19 00:16:00,
2014-04-18 19:21:00,75.2,56.4,30.07,ENE,62,0.0,0.0,52,0.00,,CLR,0.00,1619.00,VWS V15.00,2014-04-19 00:21:00,
2014-04-18 19:26:00,74.8,56.5,30.07,ENE,62,0.0,0.0,53,0.00,,CLR,0.00,1619.00,VWS V15.00,2014-04-19 00:26:00,
2014-04-18 19:31:00,74.3,56.6,30.07,ENE,62,0.0,0.0,54,0.00,,CLR,0.00,1617.00,VWS V15.00,2014-04-19 00:31:00,
2014-04-18 19:36:00,74.0,56.8,30.07,ENE,61,0.0,0.0,55,0.00,,CLR,0.00,1617.00,VWS V15.00,2014-04-19 00:36:00,
2014-04-18 19:41:00,73.8,57.1,30.07,ENE,62,0.0,0.0,56,0.00,,CLR,0.00,1617.00,VWS V15.00,2014-04-19 00:41:00,
2014-04-18 19:46:00,73.3,56.7,30.07,ENE,61,0.0,0.0,56,0.00,,CLR,0.00,1615.00,VWS V15.00,2014-04-19 00:46:00,
2014-04-18 19:51:00,73.0,56.4,30.07,ENE,62,0.0,0.0,56,0.00,,CLR,0.00,1615.00,VWS V15.00,2014-04-19 00:51:00,
2014-04-18 19:56:00,72.8,56.7,30.07,ENE,61,0.0,0.0,57,0.00,,CLR,0.00,1614.00,VWS V15.00,2014-04-19 00:56:00,
2014-04-18 20:01:00,72.4,56.8,30.07,ENE,62,0.0,0.0,58,0.00,,CLR,0.00,1612.00,VWS V15.00,2014-04-19 01:01:00,
2014-04-18 20:06:00,72.1,57.0,30.07,ENE,62,0.0,0.0,59,0.00,,CLR,0.00,1610.00,VWS V15.00,2014-04-19 01:06:00,
2014-04-18 20:11:00,71.8,57.2,30.07,ENE,62,0.0,0.0,60,0.00,,CLR,0.00,1608.00,VWS V15.00,2014-04-19 01:11:00,
2014-04-18 20:16:00,71.4,56.8,30.07,ENE,62,0.0,0.0,60,0.00,,CLR,0.00,1607.00,VWS V15.00,2014-04-19 01:16:00,